Regional Weather Roundup
Issued by NWS

Home | Current Version | Previous Version | Text Only | Print | Product List | Glossary Off
Versions: 1 2 3 4 5 6 7 8 9 10 11 12 13 14 15 16 17 18 19 20 21 22 23 24 25 26 27 28 29 30 31 32 33 34 35 36 37 38 39 40 41 42 43 44 45 46 47 48 49 50

000
ASUS45 KTFX 030219
RWRMT
MONTANA HOURLY WEATHER ROUNDUP
NATIONAL WEATHER SERVICE GREAT FALLS MT
719 PM MST MON MAR 2 2015

NOTE: "FAIR" INDICATES FEW OR NO CLOUDS BELOW 12000 FEET WITH NO
SIGNIFICANT WEATHER AND/OR OBSTRUCTIONS TO VISIBILITY.

* THESE STATIONS ARE NOT UNDER NWS QUALITY CONTROL. THEY DO NOT
   REPORT WEATHER SUCH AS PRECIPITATION OR FOG.

MTZ001>007-043-030300-
WEST OF THE DIVIDE
CITY           SKY/WX    TMP DP  RH WIND       PRES   REMARKS
KALISPELL      CLOUDY    27   9  46 NE23G28   30.00R WCI  13
MISSOULA       CLOUDY    28  18  66 E16       29.87R WCI  16
BUTTE          LGT SNOW  19  10  68 N23G31    29.74R VSB 2    WCI   2
MULLAN PASS    LGT SNOW  19  18  96 CALM      29.73R VSB 3/4
* ANACONDA     CLOUDY    19  12  74 N24        N/A   WCI   2
* ESSEX        N/A       20   7  57 E1G8       N/A
* EUREKA APT   MOCLDY    28   1  31 E10G20    30.04R WCI  19
* HAMILTON APT CLOUDY    30  27  89 N12       29.78R WCI  20
* LIBBY APT    MOCLDY    27  16  63 N7        30.02R WCI  19
* LINCOLN      N/A       18   7  62 NE14G30    N/A   WCI   4
* LOOKOUT PASS N/A       25  24  96 NW3        N/A
* POLSON       N/A       23  14  68 N4         N/A
* RONAN APT    CLOUDY    28  16  61 N/A        N/A
* SEELEY LAKE  N/A       24  11  57 N4         N/A
* THOMP F APT  CLOUDY    32   9  38 W1         N/A
* YAAK HILL    N/A       32  18  56 E1G7       N/A
$$

MTZ008-052>055-030300-
SOUTHWEST MONTANA
CITY           SKY/WX    TMP DP  RH WIND       PRES   REMARKS
BOZEMAN        CLOUDY    30  16  56 S12       29.76R WCI  20
DILLON         CLOUDY    27  12  53 NE22G29   29.68R WCI  13
* W YELLOWSTON CLOUDY    28   9  45 SW1        N/A
* THREE FORKS  MOCLDY    27  10  49 N22G33     N/A   WCI  13
* BOULDER HILL N/A       13   9  84 N20G29     N/A   WCI  -5
* MONIDA PASS  N/A       23   2  40 N4         N/A
* RAYNOLDS PAS N/A       21  20  96 N20G27     N/A   WCI   6
* WHITEHALL    N/A       25  13  60 N17G30     N/A   WCI  12
* WISE RIVER   N/A       25  11  55 NE12G26    N/A   WCI  14
$$

MTZ009>010-012-014-046-048-049-054-030300-
EAST SLOPES AND CENTRAL MONTANA
CITY           SKY/WX    TMP DP  RH WIND       PRES   REMARKS
CUT BANK       LGT SNOW  18  14  84 N16       30.07R VSB 1 3/4 WCI   3
GREAT FALLS    LGT SNOW  18  14  84 N13       30.04R VSB 3    WCI   5
HELENA         CLOUDY    21  10  62 N16G25    29.96R WCI   7
MALMSTROM AFB  LGT SNOW  19  12  74 N17       30.06R WCI   4
* CONRAD       CLOUDY    19  14  81 NW9        N/A   WCI   8
* DEARBORN     N/A       19  15  84 N13G20     N/A   WCI   6
* EAST GLACIER N/A       13  10  88 E12        N/A   WCI  -1
* MONARCH      N/A       11   7  84 NW17G27    N/A   WCI  -6
* PENDROY      N/A       15  14  96 N11        N/A   WCI   2
* ROGERS PASS  N/A       11   7  84 S5G13      N/A   WCI   2
* SWEET GRASS  N/A       15  13  92 NE20G26    N/A   WCI  -2
* WHITE SULPH  N/A       18   6  59 NW14G23    N/A   WCI   4
$$

MTZ011-013-016-021-035-040-045-047-050-051-030300-
NORTH CENTRAL MONTANA
CITY           SKY/WX    TMP DP  RH WIND       PRES   REMARKS
HAVRE          CLOUDY    21  12  68 N8        30.08R WCI  11
LEWISTOWN      LGT SNOW  19  14  81 NW14G23   29.93R VSB 1 1/4 WCI   5
* N BAR RANCH  FOG       18  14  84 N15G24    29.88R VSB 1 1/4 WCI   4
* CHINOOK      CLOUDY    21   9  60 NW7       30.09R WCI  12
* FORT BENTON  CLOUDY    21  10  62 N12       30.09R WCI   9
* DENTON       N/A       20  13  74 NW22G27    N/A   WCI   4
* GEYSER       N/A       17  11  77 NE8G19     N/A   WCI   7
* JUDITH GAP   N/A       17  16  96 N34G43     N/A   WCI  -4
* LOMA         N/A       22  11  62 NW15G22    N/A   WCI   9
$$

MTZ017>020-022>027-061-062-030300-
NORTHEAST MONTANA
CITY           SKY/WX    TMP DP  RH WIND       PRES   REMARKS
GLASGOW        CLOUDY    19  10  68 NW26G33   29.96R WCI   1
GLENDIVE       CLOUDY    23  16  74 N26G35    29.87R WCI   6
JORDAN         PTCLDY    21  14  74 N23G31    29.93R WCI   5
SIDNEY         CLOUDY    21  12  68 NW21G28   29.94R WCI   5
WOLF POINT     CLOUDY    23  12  63 N21       29.97R WCI   8
* BEAVER HILL  N/A       26  19  75 N28G34     N/A   WCI  10
* CIRCLE       N/A       22  14  71 N9G18      N/A   WCI  12
* LINDSAY DVD  N/A       21  15  78 NW29G42    N/A   WCI   3
* NAVAJO       N/A       15  10  80 N31G38     N/A   WCI  -6
* PLENTYWOOD A CLOUDY    16  10  77 NW24G40   29.88R WCI  -2
* POPLAR APT   CLOUDY    19  12  74 NW15G23   29.94R WCI   5
* SACO         N/A       20  10  65 NW19       N/A   WCI   5
$$

MTZ028>042-056>058-030300-
SOUTHCENTRAL AND SOUTHEAST MONTANA
CITY           SKY/WX    TMP DP  RH WIND       PRES   REMARKS
BAKER          PTCLDY    30  19  64 NW17      29.77R WCI  18
BILLINGS       CLOUDY    28  19  69 N16G31    29.85R WCI  16
LIVINGSTON     LGT SNOW  25  18  75 E13       29.80R VSB 2    WCI  13
MILES CITY     CLOUDY    28  19  69 N26G33    29.86R WCI  13
* BIG TIMBER A CLOUDY    21  12  68 N20G25    29.83R WCI   6
* FORSYTH APT  PTCLDY    28  21  75 NW22G29   29.86R WCI  14
* LAUREL APT   CLOUDY    28  14  56 N20        N/A   WCI  15
* ROUNDUP APT  MOCLDY    23  10  57 N26G31     N/A   WCI   6
* ALZADA       N/A       31  21  66 NW4        N/A
* HYSHAM       N/A       26  18  72 N8G17      N/A   WCI  18
* LAME DEER    N/A       26  20  78 VRB19G29    N/A   WCI  12
* REED POINT   N/A       27  14  58 W4G14      N/A
* ROSCOE HILL  N/A       22  13  68 NW9G18     N/A   WCI  12
$$

REGIONAL REPORTS...DAKOTAS
CITY           SKY/WX    TMP DP  RH WIND       PRES   REMARKS
WILLISTON      MOCLDY    19  12  74 N20G29    29.88R WCI   3
DICKINSON      MOCLDY    34  18  52 N12       29.72R WCI  25
BEACH          CLEAR     25  21  85 N23G33    29.80R WCI  10
CROSBY         LGT SNOW  16  14  92 NW26G37   29.84R WCI  -3
TIOGA          LGT SNOW  16  16 100 NW25G35   29.84R WCI  -3
WATFORD CITY   MOCLDY    21  16  81 NW18G30   29.82R WCI   6
BISMARCK       PTCLDY    28  21  75 SE5       29.73S WCI  22
GRAND FORKS    FAIR      27  18  69 S23       29.83F WCI  13
FARGO          MOCLDY    28  18  66 S25G39    29.89F WCI  13
BUFFALO SD     CLOUDY    36  18  48 NW12      29.65S WCI  28
RAPID CITY     CLOUDY    37  23  57 N15       29.66F WCI  28
$$

REGIONAL REPORTS...WYOMING/IDAHO/WASHINGTON
CITY           SKY/WX    TMP DP  RH WIND       PRES   REMARKS
GILLETTE       CLOUDY    34  18  52 N9        29.70R WCI  27
SHERIDAN       CLOUDY    34  21  59 N8        29.75R WCI  27
CODY           CLOUDY    28  21  75 N20G28    29.70R WCI  15
YELLOWSTONE LA CLOUDY    21  19  92 CALM      29.61F
SALMON         CLOUDY    37  12  36 NW6       29.65R WCI  32
MULLAN PASS    LGT SNOW  19  18  96 CALM      29.73S VSB 3/4
SAND POINT     MOCLDY    32  23  69 NE20G26   29.95R WCI  20
SPOKANE        LGT SNOW  34  30  85 N3        29.89R
$$

REGIONAL REPORTS...ALBERTA
CITY           SKY/WX    TMP DP  RH WIND       PRES   REMARKS
CALGARY        FAIR      10   3  73 N17G24    30.15R WCI  -8
LETHBRIDGE     CLOUDY    18   7  62 N10G17    30.16R WCI   6
MEDICINE HAT   PTCLDY    16   5  62 NW18G26   30.17R
EDMONTON       FAIR       9  -6  50 N17       30.25R WCI  -9
WATERTON GATE  N/A       14  10  84 NE17       N/A   WCI  -2
CARDSTON       N/A       16  12  84 N8         N/A   WCI   5
MILK RIVER     N/A       14   9  80 N15G22     N/A   WCI  -1
$$

REGIONAL REPORTS...SASKATCHEWAN
CITY           SKY/WX    TMP DP  RH WIND       PRES   REMARKS
SWIFT CURRENT  PTCLDY     9   3  76 NW20G26   30.02R WCI -10
REGINA         LGT SNOW  10   7  88 N29G38    29.92R WCI -12
VAL MARIE      N/A       18  10  71 N16G23     N/A   WCI   3
ASSINIBOIA     N/A       12   7  80 NW29G36    N/A   WCI  -9
CORONACH       N/A       14  10  84 NW20G25    N/A   WCI  -4

$$




USA.gov is the U.S. government's official web portal to all federal, state and local government web resources and services.